Regional Weather Roundup
Issued by NWS

Home | Current Version | Previous Version | Graphics & Text | Print | Product List | Glossary On
Versions: 1 2 3 4 5 6 7 8 9 10 11 12 13 14 15 16 17 18 19 20 21 22 23 24 25 26 27 28 29 30 31 32 33 34 35 36 37 38 39 40 41 42 43 44 45 46 47 48 49 50
000
ASUS43 KMKX 281521
RWRWI

WISCONSIN REGIONAL WEATHER ROUNDUP
NATIONAL WEATHER SERVICE MILWAUKEE/SULLIVAN WI
1000 AM CDT FRI APR 28 2017

NOTE: "FAIR" INDICATES FEW OR NO CLOUDS BELOW 12,000 FEET WITH NO
SIGNIFICANT WEATHER AND/OR OBSTRUCTIONS TO VISIBILITY.

WIZ001-002-006>008-014>016-023>028-281600-
NORTHWEST WISCONSIN

CITY           SKY/WX    TMP DP  RH WIND       PRES   REMARKS
SUPERIOR ARPT  CLOUDY    36  25  64 NW13G20   29.87R WCI  27
ASHLAND        CLOUDY    34  24  67 W13       29.84R WCI  25
HAYWARD        CLOUDY    33  23  66 W7        29.87R WCI  27
SIREN          CLOUDY    35  24  64 NW10G16   29.90R WCI  27
CUMBERLAND     CLOUDY    36  23  60 NW10G21   29.88S WCI  28
RICE LAKE      CLOUDY    36  24  63 NW10      29.89S WCI  28
CHETEK         CLOUDY    38  26  62 NW12      29.89R WCI  30
LADYSMITH      CLOUDY    36  24  63 NW14G21   29.88R WCI  27
EAU CLAIRE     SUNNY     40  23  50 NW7       29.89R
MENOMONIE      SUNNY     40  23  50 W10       29.90R WCI  34
NEW RICHMOND   SUNNY     38  24  57 NW9G16    29.90R WCI  31
OSCEOLA        SUNNY     38  25  60 NW9       29.94R WCI  31
$$

WIZ003>005-009-010-017-018-281600-
NORTH CENTRAL WISCONSIN

CITY           SKY/WX    TMP DP  RH WIND       PRES   REMARKS
MANITOWISH WTR CLOUDY    29  21  71 W12G17    29.81R WCI  20
ARBOR VITAE    CLOUDY    32  25  76 W10G20    29.81R WCI  23
WOODRUFF       CLOUDY    32  25  76 W10G20    29.81R WCI  23
RHINELANDER    CLOUDY    32  25  75 W9        29.83R WCI  24
EAGLE RIVER    CLOUDY    31  21  67 W10G20    29.81R WCI  22
LAND O LAKES   CLOUDY    31  22  69 W15G21    29.81R WCI  20
PHILLIPS       CLOUDY    32  23  70 W6        29.84R WCI  26
TOMAHAWK       CLOUDY    32  24  72 W8        29.85R WCI  25
MEDFORD        CLOUDY    33  24  69 W8G16     29.86R WCI  27
MERRILL        CLOUDY    34  25  69 W10       29.87R WCI  26
$$

WIZ029-030-035-036-043>047-281600-
CENTRAL WISCONSIN

CITY           SKY/WX    TMP DP  RH WIND       PRES   REMARKS
WAUSAU         CLOUDY    35  25  66 W13       29.87R WCI  26
MOSINEE        PTSUNNY   37  27  65 W13       29.89R WCI  29
MARSHFIELD     CLOUDY    37  26  64 W12       29.88R WCI  29
STEVENS POINT  PTSUNNY   37  23  57 W10       29.90R WCI  30
WAUPACA        MOSUNNY   42  28  58 W8        29.91R
WAUTOMA        PTSUNNY   42  29  59 W8        29.93R
WISC RAPIDS    MOSUNNY   41  27  57 NW13      29.91R
CAMP DOUGLAS   MOSUNNY   43  30  61 W6        29.91R
$$

WIZ011>013-019>022-031-037>040-048>050-281600-
NORTHEAST WISCONSIN

CITY           SKY/WX    TMP DP  RH WIND       PRES   REMARKS
ANTIGO         CLOUDY    33  26  76 W13       29.86R WCI  23
SHAWANO        CLOUDY    40  27  60 W9        29.90R WCI  34
OCONTO         NOT AVBL
STURGEON BAY   CLOUDY    37  27  67 W13       29.91R WCI  29
GREEN BAY      CLOUDY    40  30  67 SW10      29.92R WCI  33
MANITOWOC      CLOUDY    40  29  64 SW12      29.94R WCI  33
APPLETON       PTSUNNY   39  25  56 SW10      29.90R WCI  32
CLINTONVILLE   PTSUNNY   39  25  56 SW8G18    29.89R WCI  34
OSHKOSH        CLOUDY    40  30  67 SW7       29.93R
$$

WIZ032>034-041-042-053>061-281600-
SOUTHWEST WISCONSIN

CITY           SKY/WX    TMP DP  RH WIND       PRES   REMARKS
LA CROSSE      SUNNY     45  30  55 N6        29.91S
SPARTA         SUNNY     43  31  62 W5        29.92S
VIROQUA        SUNNY     40  29  65 CALM      29.90F
BOSCOBEL       SUNNY     45  27  49 VRB6      29.93F
PRAIRIE DU CHI SUNNY     44  29  56 NE6       29.92F
PLATTEVILLE    MOSUNNY   42  32  68 NE8       29.92F
$$

WIZ056-057-062-063-064-067-068-281600-
SOUTH CENTRAL WISCONSIN

CITY           SKY/WX    TMP DP  RH WIND       PRES   REMARKS
REEDSBURG      SUNNY     41  29  63 SW3       29.92S
BARABOO/DELLS  SUNNY     41  28  58 W5        29.91F
LONE ROCK      CLOUDY    45  29  53 MISG      29.93F
MINERAL POINT  SUNNY     43  32  65 CALM      29.92S
MADISON        PTSUNNY   42  30  62 NW5       29.93S
MIDDLETON      SUNNY     42  30  62 CALM      29.93S
WATERTOWN      MOSUNNY   42  34  74 SW6       29.93S
MONROE         SUNNY     41  32  70 CALM      29.93R
JANESVILLE     MOSUNNY   45  34  65 CALM      29.93S
$$

WIZ051-052-058>065-066-070>072-281600-
SOUTHEAST WISCONSIN

CITY           SKY/WX    TMP DP  RH WIND       PRES   REMARKS
MILWAUKEE      MOSUNNY   47  34  60 W6        29.93F
WAUKESHA       SUNNY     43  32  65 SW3       29.94F
MILWAUKEE/TIMM SUNNY     45  30  57 W5        29.94F
RACINE         SUNNY     47  34  60 S7        29.95F
KENOSHA        CLOUDY    47  35  63 S3        29.94F
FOND DU LAC    CLOUDY    40  29  64 SW10      29.93R WCI  33
SHEBOYGAN      PTSUNNY   41  35  79 W10       29.93R
WEST BEND      MOSUNNY   41  32  70 SW5       29.92F
JUNEAU         PTSUNNY   39  31  74 W3        29.94F
$$

LSZ147-162-281600-
LAKE SUPERIOR

STATION/POSITION TIME  TEMP    WIND        PRES    WAVE
                       AIR SEA DIR/SP/G            HT/PER
                 (UTC) (F)     (DEG/KT/KT) (MB)    (FT/S)
DEVILS ISLAND    1500   33     270/ 21/ 24 1010.0R
PORT WING        1440   34     270/ 14/ 20 1010.5S
SAXON HARBOR     1440   33     220/  7/ 11 1010.2R
$$

LMZ867-665-643>646-281600-
LAKE MICHIGAN

STATION/POSITION TIME  TEMP    WIND        PRES    WAVE
                       AIR SEA DIR/SP/G            HT/PER
                 (UTC) (F)     (DEG/KT/KT) (MB)    (FT/S)
CHAMBERS ISLAND  1440   36     230/  7/ 12 1011.5R
N MID LAKE BUOY  1450   35 37  250/ 14/ 17 1012.8R   3/ 4
NORTHPORT PIER   1440   36     270/  7/ 12 1011.9R
SISTER BAY       1336   36     300/ 17/ 20   N/A
KEWAUNEE LAKESHO 1500   39     250/  7/ 12 1012.8
SHEBOYGAN LAKESH 1500   40     190/  7/ 10 1013.8R
PORT WASHINGTON  1430   45     170/  5/  9 1014.9R
MILWAUKEE LAKESH 1500   42     110/  8/  8   N/A
S MID LAKE BUOY  1450   42 41  270/  4/  4 1014.9F   1/ 3
KENOSHA   LAKESH 1500   45     150/  1/  6 1013.5
$$

TC  - TEMPERATURE IN CELSIUS
VSB - VISIBILITY IN STATUTE MILES
WCI - WIND CHILL INDEX
HX  - HEAT INDEX




USA.gov is the U.S. government's official web portal to all federal, state and local government web resources and services.